| time (UTC) | temp F | wind direction | speed MPH | gust MPH | rain 1hr in | rain 24hr in | rain mn in | humidity % | barometer mb |
| 20260504160338 | 72 | 147 | 14.0 | 22.0 | 0.00 | 0.00 | 0.00 | 55 | 1013.5 |
| 20260504150802 | 69 | 230 | 13.0 | 17.0 | 0.00 | 0.00 | 0.00 | 62 | 1014.3 |
| 20260504150259 | 70 | 157 | 11.0 | 16.0 | 0.00 | 0.00 | 0.00 | 62 | 1014.2 |
| 20260504141229 | 67 | 229 | 13.0 | 16.0 | 0.00 | 0.00 | 0.00 | 68 | 1014.4 |
| 20260504140725 | 66 | 208 | 9.0 | 15.0 | 0.00 | 0.00 | 0.00 | 69 | 1014.7 |
| 20260504140221 | 66 | 154 | 6.0 | 11.0 | 0.00 | 0.00 | 0.00 | 69 | 1014.8 |
| 20260504130650 | 63 | 218 | 8.0 | 9.0 | 0.00 | 0.00 | 0.00 | 73 | 1014.5 |
| 20260504130146 | 63 | 146 | 6.0 | 11.0 | 0.00 | 0.00 | 0.00 | 74 | 1014.5 |
| 20260504120110 | 62 | 250 | 10.0 | 10.0 | 0.00 | 0.00 | 0.00 | 74 | 1014.0 |
| 20260504110537 | 62 | 207 | 8.0 | 13.0 | 0.00 | 0.00 | 0.00 | 73 | 1013.9 |
| 20260504100448 | 63 | 189 | 7.0 | 9.0 | 0.00 | 0.00 | 0.00 | 70 | 1014.0 |
| 20260504081841 | 65 | 199 | 5.0 | 14.0 | 0.00 | 0.00 | 0.00 | 65 | 1014.3 |
| 20260504081338 | 65 | 245 | 7.0 | 14.0 | 0.00 | 0.00 | 0.00 | 64 | 1014.5 |
| 20260504080834 | 65 | 192 | 7.0 | 13.0 | 0.00 | 0.00 | 0.00 | 64 | 1014.4 |
| 20260504080331 | 65 | 199 | 5.0 | 8.0 | 0.00 | 0.00 | 0.00 | 63 | 1014.6 |
| 20260504070258 | 67 | 159 | 5.0 | 9.0 | 0.00 | 0.00 | 0.00 | 55 | 1015.3 |
| 20260504060219 | 68 | 221 | 7.0 | 9.0 | 0.00 | 0.00 | 0.00 | 56 | 1016.0 |
| 20260504050646 | 69 | 198 | 5.0 | 9.0 | 0.00 | 0.00 | 0.00 | 54 | 1016.4 |
| 20260504050143 | 69 | 239 | 3.0 | 8.0 | 0.00 | 0.00 | 0.00 | 55 | 1016.7 |
| 20260504045641 | 69 | 219 | 4.0 | 7.0 | 0.00 | 0.00 | 0.00 | 54 | 1016.6 |
| 20260504045141 | 69 | 208 | 6.0 | 9.0 | 0.00 | 0.00 | 0.00 | 53 | 1016.6 |
| 20260504044639 | 69 | 179 | 6.0 | 13.0 | 0.00 | 0.00 | 0.00 | 53 | 1016.7 |
| 20260504044135 | 69 | 205 | 4.0 | 8.0 | 0.00 | 0.00 | 0.00 | 53 | 1016.7 |
| 20260504043632 | 69 | 205 | 4.0 | 6.0 | 0.00 | 0.00 | 0.00 | 53 | 1016.6 |
| 20260504043130 | 69 | 216 | 8.0 | 10.0 | 0.00 | 0.00 | 0.00 | 53 | 1016.7 |
| 20260504042627 | 70 | 206 | 8.0 | 9.0 | 0.00 | 0.00 | 0.00 | 53 | 1016.7 |
| 20260504042123 | 70 | 217 | 5.0 | 8.0 | 0.00 | 0.00 | 0.00 | 52 | 1016.8 |
| 20260504041619 | 70 | 185 | 5.0 | 7.0 | 0.00 | 0.00 | 0.00 | 52 | 1016.8 |
| 20260504041116 | 70 | 205 | 5.0 | 8.0 | 0.00 | 0.00 | 0.00 | 52 | 1016.7 |
| 20260504040613 | 70 | 181 | 7.0 | 8.0 | 0.00 | 0.00 | 0.00 | 51 | 1016.7 |
| 20260504040109 | 70 | 177 | 6.0 | 9.0 | 0.00 | 0.00 | 0.00 | 51 | 1016.6 |
| 20260504035606 | 70 | 176 | 3.0 | 7.0 | 0.00 | 0.00 | 0.00 | 51 | 1016.7 |
| 20260504035103 | 70 | 155 | 5.0 | 6.0 | 0.00 | 0.00 | 0.00 | 51 | 1016.7 |
| 20260504034601 | 70 | 197 | 5.0 | 8.0 | 0.00 | 0.00 | 0.00 | 50 | 1016.7 |
| 20260504034057 | 70 | 199 | 7.0 | 9.0 | 0.00 | 0.00 | 0.00 | 50 | 1016.7 |
| 20260504033555 | 70 | 194 | 6.0 | 9.0 | 0.00 | 0.00 | 0.00 | 49 | 1016.8 |
| 20260504033052 | 70 | 182 | 7.0 | 13.0 | 0.00 | 0.00 | 0.00 | 49 | 1016.7 |
| 20260504032549 | 71 | 217 | 3.0 | 6.0 | 0.00 | 0.00 | 0.00 | 48 | 1016.8 |
| 20260504032046 | 71 | 211 | 7.0 | 9.0 | 0.00 | 0.00 | 0.00 | 48 | 1016.6 |
| 20260504031543 | 71 | 221 | 5.0 | 6.0 | 0.00 | 0.00 | 0.00 | 48 | 1016.5 |
| 20260504031039 | 71 | 211 | 4.0 | 7.0 | 0.00 | 0.00 | 0.00 | 47 | 1016.5 |
| 20260504030537 | 71 | 210 | 3.0 | 8.0 | 0.00 | 0.00 | 0.00 | 47 | 1016.3 |
| 20260504030032 | 71 | 209 | 7.0 | 8.0 | 0.00 | 0.00 | 0.00 | 47 | 1016.4 |
| 20260504025530 | 71 | 221 | 4.0 | 10.0 | 0.00 | 0.00 | 0.00 | 47 | 1016.4 |
| 20260504025026 | 71 | 212 | 5.0 | 7.0 | 0.00 | 0.00 | 0.00 | 47 | 1016.2 |
| 20260504024524 | 72 | 214 | 4.0 | 5.0 | 0.00 | 0.00 | 0.00 | 46 | 1016.2 |
| 20260504024020 | 72 | 198 | 3.0 | 6.0 | 0.00 | 0.00 | 0.00 | 46 | 1016.2 |
| 20260504023517 | 72 | 175 | 8.0 | 9.0 | 0.00 | 0.00 | 0.00 | 46 | 1016.4 |
| 20260504023013 | 72 | 257 | 3.0 | 6.0 | 0.00 | 0.00 | 0.00 | 45 | 1016.4 |
| 20260504022509 | 72 | 197 | 7.0 | 10.0 | 0.00 | 0.00 | 0.00 | 45 | 1016.3 |
| 20260504022006 | 73 | 178 | 4.0 | 6.0 | 0.00 | 0.00 | 0.00 | 45 | 1016.4 |
| 20260504021504 | 73 | 213 | 7.0 | 8.0 | 0.00 | 0.00 | 0.00 | 44 | 1016.5 |
| 20260504021000 | 73 | 228 | 4.0 | 5.0 | 0.00 | 0.00 | 0.00 | 44 | 1016.4 |
| 20260504020456 | 73 | 229 | 6.0 | 9.0 | 0.00 | 0.00 | 0.00 | 44 | 1016.4 |
| 20260504015953 | 73 | 181 | 5.0 | 9.0 | 0.00 | 0.00 | 0.00 | 44 | 1016.2 |
| 20260504015449 | 73 | 158 | 5.0 | 8.0 | 0.00 | 0.00 | 0.00 | 43 | 1016.2 |
| 20260504014945 | 74 | 165 | 7.0 | 8.0 | 0.00 | 0.00 | 0.00 | 43 | 1016.4 |
| 20260504014442 | 74 | 184 | 6.0 | 8.0 | 0.00 | 0.00 | 0.00 | 43 | 1016.2 |
| 20260504013938 | 74 | 205 | 9.0 | 9.0 | 0.00 | 0.00 | 0.00 | 42 | 1016.1 |
| 20260504013437 | 74 | 192 | 7.0 | 8.0 | 0.00 | 0.00 | 0.00 | 42 | 1016.2 |
| 20260504012933 | 75 | 224 | 5.0 | 8.0 | 0.00 | 0.00 | 0.00 | 41 | 1016.1 |
| 20260504012431 | 75 | 175 | 5.0 | 8.0 | 0.00 | 0.00 | 0.00 | 41 | 1016.1 |
| 20260504011929 | 75 | 237 | 3.0 | 8.0 | 0.00 | 0.00 | 0.00 | 40 | 1016.2 |
| 20260504011425 | 75 | 177 | 5.0 | 7.0 | 0.00 | 0.00 | 0.00 | 40 | 1016.2 |
| 20260504010920 | 75 | 207 | 7.0 | 11.0 | 0.00 | 0.00 | 0.00 | 40 | 1015.9 |
| 20260504010417 | 76 | 213 | 5.0 | 8.0 | 0.00 | 0.00 | 0.00 | 39 | 1016.2 |
| 20260504005913 | 76 | 193 | 5.0 | 10.0 | 0.00 | 0.00 | 0.00 | 39 | 1016.1 |
| 20260504005410 | 76 | 213 | 5.0 | 10.0 | 0.00 | 0.00 | 0.00 | 39 | 1016.0 |
| 20260504004908 | 77 | 204 | 6.0 | 13.0 | 0.00 | 0.00 | 0.00 | 38 | 1016.2 |
| 20260504004405 | 77 | 230 | 9.0 | 14.0 | 0.00 | 0.00 | 0.00 | 38 | 1016.1 |
| 20260504003902 | 77 | 211 | 6.0 | 9.0 | 0.00 | 0.00 | 0.00 | 38 | 1016.1 |
| 20260504003358 | 78 | 169 | 5.0 | 7.0 | 0.00 | 0.00 | 0.00 | 37 | 1016.1 |
| 20260504002855 | 78 | 207 | 8.0 | 15.0 | 0.00 | 0.00 | 0.00 | 37 | 1016.2 |
| 20260504002352 | 78 | 225 | 7.0 | 11.0 | 0.00 | 0.00 | 0.00 | 36 | 1016.0 |
| 20260504001850 | 79 | 202 | 10.0 | 14.0 | 0.00 | 0.00 | 0.00 | 35 | 1015.9 |
| 20260504001347 | 79 | 236 | 6.0 | 10.0 | 0.00 | 0.00 | 0.00 | 34 | 1016.0 |
| 20260504000843 | 79 | 205 | 6.0 | 13.0 | 0.00 | 0.00 | 0.00 | 34 | 1016.0 |
| 20260504000341 | 79 | 233 | 6.0 | 14.0 | 0.00 | 0.00 | 0.00 | 33 | 1015.9 |
| 20260503235838 | 80 | 159 | 5.0 | 15.0 | 0.00 | 0.00 | 0.00 | 32 | 1016.1 |
| 20260503235336 | 79 | 225 | 7.0 | 11.0 | 0.00 | 0.00 | 0.00 | 31 | 1016.3 |
| 20260503234833 | 80 | 171 | 8.0 | 15.0 | 0.00 | 0.00 | 0.00 | 31 | 1016.1 |
| 20260503234330 | 79 | 198 | 5.0 | 8.0 | 0.00 | 0.00 | 0.00 | 32 | 1016.4 |
| 20260503233828 | 80 | 181 | 7.0 | 15.0 | 0.00 | 0.00 | 0.00 | 32 | 1016.4 |
| 20260503233324 | 80 | 237 | 4.0 | 10.0 | 0.00 | 0.00 | 0.00 | 33 | 1016.3 |
| 20260503232820 | 80 | 222 | 8.0 | 14.0 | 0.00 | 0.00 | 0.00 | 32 | 1016.4 |
| 20260503232318 | 80 | 181 | 10.0 | 17.0 | 0.00 | 0.00 | 0.00 | 33 | 1016.3 |
| 20260503231816 | 80 | 164 | 7.0 | 15.0 | 0.00 | 0.00 | 0.00 | 33 | 1016.2 |
| 20260503231313 | 80 | 251 | 4.0 | 8.0 | 0.00 | 0.00 | 0.00 | 33 | 1016.2 |
| 20260503230808 | 80 | 171 | 7.0 | 11.0 | 0.00 | 0.00 | 0.00 | 34 | 1016.3 |
| 20260503230306 | 80 | 226 | 6.0 | 11.0 | 0.00 | 0.00 | 0.00 | 33 | 1016.4 |
| 20260503225803 | 80 | 222 | 9.0 | 13.0 | 0.00 | 0.00 | 0.00 | 32 | 1016.5 |
| 20260503225258 | 80 | 219 | 5.0 | 15.0 | 0.00 | 0.00 | 0.00 | 32 | 1016.6 |
| 20260503224755 | 81 | 226 | 8.0 | 11.0 | 0.00 | 0.00 | 0.00 | 32 | 1016.6 |
| 20260503224253 | 81 | 123 | 7.0 | 11.0 | 0.00 | 0.00 | 0.00 | 31 | 1016.5 |
| 20260503223750 | 81 | 220 | 3.0 | 13.0 | 0.00 | 0.00 | 0.00 | 33 | 1016.4 |
| 20260503223248 | 81 | 257 | 5.0 | 11.0 | 0.00 | 0.00 | 0.00 | 33 | 1016.7 |
| 20260503222744 | 81 | 177 | 7.0 | 11.0 | 0.00 | 0.00 | 0.00 | 33 | 1016.6 |
| 20260503222242 | 80 | 220 | 9.0 | 14.0 | 0.00 | 0.00 | 0.00 | 32 | 1016.7 |
| 20260503221740 | 81 | 242 | 7.0 | 18.0 | 0.00 | 0.00 | 0.00 | 32 | 1016.9 |
| 20260503221238 | 81 | 205 | 8.0 | 15.0 | 0.00 | 0.00 | 0.00 | 32 | 1016.8 |
| 20260503220734 | 81 | 197 | 7.0 | 15.0 | 0.00 | 0.00 | 0.00 | 32 | 1016.9 |
| 20260503220231 | 81 | 222 | 6.0 | 13.0 | 0.00 | 0.00 | 0.00 | 32 | 1017.0 |
| 20260503215727 | 81 | 228 | 17.0 | 20.0 | 0.00 | 0.00 | 0.00 | 30 | 1016.9 |
| 20260503215225 | 82 | 218 | 8.0 | 10.0 | 0.00 | 0.00 | 0.00 | 30 | 1017.2 |
| 20260503214723 | 81 | 270 | 5.0 | 11.0 | 0.00 | 0.00 | 0.00 | 30 | 1017.1 |
| 20260503214219 | 82 | 199 | 3.0 | 7.0 | 0.00 | 0.00 | 0.00 | 30 | 1016.9 |
| 20260503213717 | 81 | 198 | 9.0 | 11.0 | 0.00 | 0.00 | 0.00 | 30 | 1017.3 |
| 20260503213214 | 80 | 189 | 8.0 | 10.0 | 0.00 | 0.00 | 0.00 | 31 | 1017.0 |
| 20260503212711 | 81 | 216 | 6.0 | 15.0 | 0.00 | 0.00 | 0.00 | 31 | 1017.1 |
| 20260503212209 | 81 | 178 | 8.0 | 11.0 | 0.00 | 0.00 | 0.00 | 31 | 1017.3 |
| 20260503211706 | 81 | 228 | 7.0 | 15.0 | 0.00 | 0.00 | 0.00 | 31 | 1017.3 |
| 20260503211202 | 82 | 200 | 7.0 | 9.0 | 0.00 | 0.00 | 0.00 | 32 | 1017.5 |
| 20260503210658 | 81 | 286 | 6.0 | 11.0 | 0.00 | 0.00 | 0.00 | 32 | 1017.7 |
| 20260503210155 | 81 | 195 | 13.0 | 15.0 | 0.00 | 0.00 | 0.00 | 31 | 1017.9 |
| 20260503205650 | 81 | 216 | 5.0 | 8.0 | 0.00 | 0.00 | 0.00 | 32 | 1017.7 |
| 20260503205147 | 81 | 188 | 7.0 | 11.0 | 0.00 | 0.00 | 0.00 | 33 | 1018.1 |
| 20260503204643 | 82 | 191 | 8.0 | 13.0 | 0.00 | 0.00 | 0.00 | 32 | 1017.9 |
| 20260503204141 | 81 | 219 | 8.0 | 9.0 | 0.00 | 0.00 | 0.00 | 31 | 1018.2 |
| 20260503203638 | 81 | 193 | 9.0 | 11.0 | 0.00 | 0.00 | 0.00 | 31 | 1018.4 |
| 20260503203136 | 82 | 242 | 5.0 | 8.0 | 0.00 | 0.00 | 0.00 | 31 | 1018.5 |
| 20260503202633 | 82 | 149 | 6.0 | 14.0 | 0.00 | 0.00 | 0.00 | 32 | 1018.5 |
| 20260503202131 | 81 | 220 | 10.0 | 13.0 | 0.00 | 0.00 | 0.00 | 31 | 1018.5 |
| 20260503201629 | 80 | 182 | 5.0 | 10.0 | 0.00 | 0.00 | 0.00 | 31 | 1018.6 |
| 20260503201126 | 81 | 251 | 11.0 | 14.0 | 0.00 | 0.00 | 0.00 | 31 | 1018.8 |
| 20260503200622 | 82 | 190 | 9.0 | 13.0 | 0.00 | 0.00 | 0.00 | 31 | 1018.6 |
| 20260503200119 | 80 | 195 | 10.0 | 14.0 | 0.00 | 0.00 | 0.00 | 31 | 1018.6 |
| 20260503195616 | 80 | 236 | 7.0 | 14.0 | 0.00 | 0.00 | 0.00 | 31 | 1018.9 |
| 20260503195112 | 81 | 222 | 4.0 | 9.0 | 0.00 | 0.00 | 0.00 | 29 | 1018.9 |
| 20260503194610 | 80 | 192 | 5.0 | 13.0 | 0.00 | 0.00 | 0.00 | 30 | 1019.1 |
| 20260503194104 | 82 | 190 | 7.0 | 10.0 | 0.00 | 0.00 | 0.00 | 30 | 1019.4 |
| 20260503193601 | 80 | 185 | 7.0 | 13.0 | 0.00 | 0.00 | 0.00 | 32 | 1019.5 |
| 20260503193056 | 80 | 255 | 9.0 | 15.0 | 0.00 | 0.00 | 0.00 | 31 | 1019.4 |
| 20260503192553 | 81 | 226 | 7.0 | 10.0 | 0.00 | 0.00 | 0.00 | 31 | 1019.5 |
| 20260503192049 | 82 | 224 | 7.0 | 14.0 | 0.00 | 0.00 | 0.00 | 32 | 1019.4 |
| 20260503191546 | 81 | 188 | 7.0 | 10.0 | 0.00 | 0.00 | 0.00 | 32 | 1019.6 |
| 20260503191043 | 80 | 252 | 10.0 | 13.0 | 0.00 | 0.00 | 0.00 | 32 | 1019.8 |
| 20260503190539 | 80 | 240 | 9.0 | 11.0 | 0.00 | 0.00 | 0.00 | 32 | 1019.9 |
| 20260503190037 | 80 | 227 | 7.0 | 16.0 | 0.00 | 0.00 | 0.00 | 33 | 1019.7 |
| 20260503185533 | 79 | 233 | 9.0 | 14.0 | 0.00 | 0.00 | 0.00 | 32 | 1019.6 |
| 20260503185033 | 80 | 250 | 5.0 | 15.0 | 0.00 | 0.00 | 0.00 | 34 | 1019.8 |
| 20260503184529 | 80 | 240 | 13.0 | 17.0 | 0.00 | 0.00 | 0.00 | 32 | 1019.9 |
| 20260503184026 | 79 | 291 | 4.0 | 9.0 | 0.00 | 0.00 | 0.00 | 35 | 1020.1 |
| 20260503183522 | 80 | 271 | 5.0 | 9.0 | 0.00 | 0.00 | 0.00 | 37 | 1020.0 |
| 20260503183019 | 79 | 239 | 7.0 | 14.0 | 0.00 | 0.00 | 0.00 | 35 | 1020.1 |
| 20260503182518 | 79 | 220 | 5.0 | 14.0 | 0.00 | 0.00 | 0.00 | 34 | 1020.3 |
| 20260503182015 | 79 | 203 | 10.0 | 14.0 | 0.00 | 0.00 | 0.00 | 34 | 1020.6 |
| 20260503181512 | 78 | 219 | 7.0 | 10.0 | 0.00 | 0.00 | 0.00 | 37 | 1020.5 |
| 20260503181008 | 78 | 266 | 8.0 | 15.0 | 0.00 | 0.00 | 0.00 | 36 | 1020.6 |
| 20260503180506 | 79 | 232 | 12.0 | 16.0 | 0.00 | 0.00 | 0.00 | 36 | 1020.8 |
| 20260503180003 | 79 | 237 | 10.0 | 13.0 | 0.00 | 0.00 | 0.00 | 37 | 1020.7 |
| 20260503175501 | 78 | 225 | 7.0 | 14.0 | 0.00 | 0.00 | 0.00 | 39 | 1021.1 |
| 20260503174957 | 78 | 250 | 6.0 | 10.0 | 0.00 | 0.00 | 0.00 | 37 | 1021.0 |
| 20260503174455 | 79 | 234 | 7.0 | 17.0 | 0.00 | 0.00 | 0.00 | 38 | 1021.1 |
| 20260503173950 | 78 | 198 | 6.0 | 11.0 | 0.00 | 0.00 | 0.00 | 40 | 1021.0 |
| 20260503173446 | 78 | 240 | 10.0 | 11.0 | 0.00 | 0.00 | 0.00 | 41 | 1021.3 |
| 20260503172943 | 77 | 150 | 5.0 | 10.0 | 0.00 | 0.00 | 0.00 | 41 | 1021.3 |
| 20260503172440 | 77 | 259 | 9.0 | 11.0 | 0.00 | 0.00 | 0.00 | 41 | 1021.2 |
| 20260503171937 | 78 | 204 | 9.0 | 11.0 | 0.00 | 0.00 | 0.00 | 41 | 1021.5 |
| 20260503171433 | 77 | 232 | 6.0 | 11.0 | 0.00 | 0.00 | 0.00 | 41 | 1021.6 |
| 20260503170931 | 77 | 255 | 8.0 | 14.0 | 0.00 | 0.00 | 0.00 | 41 | 1021.5 |
| 20260503170427 | 77 | 247 | 8.0 | 14.0 | 0.00 | 0.00 | 0.00 | 42 | 1021.8 |